Back to catalog

COSMOS 2338

AliveMilitaryPO
NORAD 24726·PAYLOAD·🇷🇺 Russia

Launched Feb 14, 1997 from Plesetsk Cosmodrome

Loading…

Next Passes (next 24 hours)

TLE

FreshSource: Space-Track

Epoch: Sep 14, 2026, 05:56 UTC

1 24726U 97006B   26257.24782389  .00000017  00000-0  37067-4 0  9993
2 24726  82.6014 207.0611 0003757 247.0724 112.9971 12.61394740361703

Track COSMOS 2338 in real time with AllMySat

Download on the App Store